�N����,����,�~����,�C��,���x,�C��,����,���ϕ���,�ő�u�ԕ���,�ő厞����,���˗�,�I�_���x,�n�����x,�ő啗���N��,DTYPE
"20/01/01","00:10",0.0,3.8,79.8,1019.7,313.0,1.1,2.2,319.0,0.00,0.7,8.2,"00:01:04",1
"20/01/01","00:20",0.0,3.7,79.9,1019.4,328.0,1.3,2.5,331.3,0.00,0.6,8.2,"00:17:36",1
"20/01/01","00:30",0.0,3.5,80.3,1019.4,278.3,0.6,1.6,311.3,0.00,0.5,8.2,"00:20:08",1
"20/01/01","00:40",0.0,3.5,81.0,1019.2,323.2,1.2,2.4,346.5,0.00,0.6,8.2,"00:34:48",1
"20/01/01","00:50",0.0,3.5,82.0,1019.0,326.0,1.7,2.7,332.0,0.00,0.8,8.2,"00:41:52",1
"20/01/01","01:00",0.0,3.4,83.1,1019.2,324.2,1.8,2.6,316.0,0.00,0.8,8.1,"00:59:04",1
"20/01/01","01:10",0.0,3.2,84.0,1018.7,311.3,1.6,2.5,319.2,0.00,0.8,8.2,"01:04:16",1
"20/01/01","01:20",0.0,3.2,84.8,1019.0,297.1,1.6,2.4,326.6,0.00,0.9,8.0,"01:15:20",1
"20/01/01","01:30",0.0,3.2,85.2,1018.7,320.3,1.7,2.8,297.6,0.00,1.0,8.1,"01:26:48",1
"20/01/01","01:40",0.0,3.1,85.3,1019.0,325.1,1.6,2.6,336.5,0.00,0.9,8.0,"01:35:12",1
"20/01/01","01:50",0.0,2.9,85.1,1019.0,326.5,1.8,3.1,335.8,0.00,0.7,8.0,"01:48:50",1
"20/01/01","02:00",0.0,2.8,84.9,1019.2,302.4,2.0,3.3,334.5,0.00,0.6,7.8,"01:55:52",1
"20/01/01","02:10",0.0,2.7,84.6,1018.5,305.1,1.6,2.6,314.9,0.00,0.4,7.8,"02:02:48",1
"20/01/01","02:20",0.0,2.2,84.5,1019.0,313.5,1.5,2.7,326.5,0.00,-0.1,8.0,"02:15:12",1
"20/01/01","02:30",0.0,1.8,84.9,1018.5,325.3,1.7,2.7,327.4,0.00,-0.4,7.8,"02:27:52",1
"20/01/01","02:40",0.0,1.6,85.6,1019.0,310.2,2.6,4.2,320.9,0.00,-0.5,7.7,"02:37:12",1
"20/01/01","02:50",0.0,1.9,86.4,1018.7,309.2,2.2,4.0,314.9,0.00,-0.1,7.7,"02:45:28",1
"20/01/01","03:00",0.0,2.3,86.7,1019.0,317.6,2.5,4.2,327.6,0.00,0.4,7.7,"02:53:28",1
"20/01/01","03:10",0.0,2.4,86.7,1019.0,320.7,2.2,3.5,318.3,0.00,0.5,7.6,"03:03:04",1
"20/01/01","03:20",0.0,2.3,86.6,1018.7,327.4,2.0,3.4,330.2,0.00,0.3,7.6,"03:10:32",1
"20/01/01","03:30",0.0,2.0,86.7,1018.7,316.5,2.0,2.7,327.1,0.00,0.1,7.5,"03:27:28",1
"20/01/01","03:40",0.0,2.1,86.9,1019.0,315.4,2.3,3.6,337.8,0.00,0.2,7.4,"03:32:16",1
"20/01/01","03:50",0.0,2.4,86.8,1018.7,328.9,2.8,4.0,326.8,0.00,0.5,7.5,"03:44:24",1
"20/01/01","04:00",0.0,2.5,86.5,1019.0,323.9,2.7,3.7,335.6,0.00,0.5,7.5,"03:56:32",1
"20/01/01","04:10",0.0,2.5,86.2,1018.5,329.2,2.7,4.1,329.5,0.00,0.5,7.3,"04:09:52",1
"20/01/01","04:20",0.0,2.4,86.1,1019.0,318.0,2.3,3.5,320.0,0.00,0.4,7.4,"04:19:44",1
"20/01/01","04:30",0.0,2.4,86.0,1018.5,330.0,3.0,4.5,330.7,0.00,0.3,7.5,"04:20:56",1
"20/01/01","04:40",0.0,2.3,85.8,1018.7,323.0,3.1,4.7,327.7,0.00,0.2,7.3,"04:36:24",1
"20/01/01","04:50",0.0,2.2,85.8,1018.5,321.6,3.4,4.8,336.4,0.00,0.1,7.2,"04:44:16",1
"20/01/01","05:00",0.0,2.1,85.8,1018.7,321.8,3.4,4.9,328.2,0.00,0.0,7.2,"04:50:40",1
"20/01/01","05:10",0.0,1.9,86.1,1018.2,322.9,3.1,4.1,318.1,0.00,-0.1,7.2,"05:03:36",1
"20/01/01","05:20",0.0,1.7,86.5,1018.7,324.7,3.1,4.2,336.6,0.00,-0.3,7.3,"05:15:28",1
"20/01/01","05:30",0.0,1.6,86.9,1018.7,323.2,3.5,4.5,336.6,0.00,-0.3,7.2,"05:22:24",1
"20/01/01","05:40",0.0,1.4,87.3,1018.2,317.5,2.7,4.1,334.5,0.00,-0.4,7.2,"05:35:52",1
"20/01/01","05:50",0.0,1.3,87.8,1018.5,317.4,2.8,3.6,337.2,0.00,-0.5,7.1,"05:40:56",1
"20/01/01","06:00",0.0,1.3,88.1,1018.2,318.5,2.8,4.2,343.8,0.00,-0.4,7.0,"05:54:08",1
"20/01/01","06:10",0.0,1.3,88.4,1018.5,323.1,2.7,4.0,323.5,0.00,-0.4,7.1,"06:00:32",1
"20/01/01","06:20",0.0,1.2,88.7,1018.5,323.4,2.6,3.7,334.2,0.00,-0.4,7.0,"06:19:04",1
"20/01/01","06:30",0.0,1.3,88.9,1018.7,321.8,2.7,3.6,327.7,0.00,-0.3,7.0,"06:20:48",1
"20/01/01","06:40",0.0,1.6,89.0,1018.5,322.7,3.1,4.4,333.3,0.00,0.0,6.9,"06:39:36",1
"20/01/01","06:50",0.0,1.8,88.8,1019.0,326.1,3.7,4.9,334.8,0.00,0.2,7.0,"06:40:08",1
"20/01/01","07:00",0.0,1.9,88.5,1019.0,323.9,3.9,5.1,329.2,0.00,0.2,6.9,"06:56:16",1
"20/01/01","07:10",0.0,1.9,88.2,1019.4,321.4,3.0,4.1,332.7,0.00,0.2,6.9,"07:00:48",1
"20/01/01","07:20",0.0,1.8,88.0,1019.4,286.4,1.1,3.3,337.2,0.00,0.1,6.8,"07:11:04",1
"20/01/01","07:30",0.0,1.5,87.8,1019.2,266.3,0.3,1.0,288.5,0.00,-0.3,6.8,"07:28:56",1
"20/01/01","07:40",0.0,1.2,87.9,1018.7,313.7,1.0,2.2,327.9,0.00,-0.5,6.8,"07:32:24",1
"20/01/01","07:50",0.0,0.9,88.0,1019.4,286.3,1.0,1.6,291.6,0.00,-0.8,6.8,"07:41:52",1
"20/01/01","08:00",0.0,1.1,88.3,1019.4,275.6,0.5,1.2,295.7,0.00,-0.6,6.7,"07:59:36",1
"20/01/01","08:10",0.0,1.3,88.5,1019.7,318.4,1.6,3.2,329.5,0.00,-0.3,6.6,"08:08:32",1
"20/01/01","08:20",0.0,1.2,88.8,1019.7,275.6,1.0,1.7,299.4,0.00,-0.4,6.7,"08:18:08",1
"20/01/01","08:30",0.0,1.4,89.2,1020.1,281.2,1.1,2.0,305.6,0.00,-0.1,6.7,"08:26:48",1
"20/01/01","08:40",0.0,2.2,89.4,1019.9,279.9,0.8,1.8,307.7,0.02,0.7,6.8,"08:37:08",1
"20/01/01","08:50",0.0,3.1,89.4,1020.4,293.9,0.6,1.8,312.8,0.04,1.6,6.8,"08:46:36",1
"20/01/01","09:00",0.0,3.7,89.3,1020.6,308.5,1.1,2.4,314.5,0.06,2.1,6.7,"08:50:16",1
"20/01/01","09:10",0.0,4.1,88.5,1020.8,285.9,2.2,3.2,278.0,0.09,2.4,6.9,"09:08:32",1
"20/01/01","09:20",0.0,4.8,86.8,1021.5,286.4,2.5,3.9,307.0,0.14,2.8,6.9,"09:19:46",1
"20/01/01","09:30",0.0,5.4,83.9,1021.5,271.3,1.7,3.2,248.0,0.16,2.9,7.0,"09:24:02",1
"20/01/01","09:40",0.0,5.7,80.5,1021.8,267.5,1.1,2.5,237.0,0.15,2.7,7.0,"09:35:28",1
"20/01/01","09:50",0.0,6.2,76.6,1022.5,266.6,2.3,4.2,264.3,0.19,2.4,7.0,"09:45:06",1
"20/01/01","10:00",0.0,5.9,73.5,1022.3,284.2,2.3,4.1,299.7,0.09,1.6,7.2,"09:57:28",1
"20/01/01","10:10",0.0,5.8,71.9,1022.0,296.2,2.3,4.3,330.1,0.08,1.2,7.3,"10:05:28",1
"20/01/01","10:20",0.0,6.0,71.4,1022.5,294.2,2.0,2.9,311.2,0.11,1.3,7.4,"10:13:12",1
"20/01/01","10:30",0.0,6.2,71.6,1022.0,256.6,1.2,2.2,250.3,0.12,1.5,7.5,"10:27:44",1
"20/01/01","10:40",0.0,6.3,71.8,1022.3,261.4,1.3,2.4,323.5,0.14,1.6,7.8,"10:32:48",1
"20/01/01","10:50",0.0,6.4,72.0,1022.0,236.7,1.1,2.0,122.1,0.15,1.8,7.7,"10:43:52",1
"20/01/01","11:00",0.0,6.5,71.7,1022.3,276.1,1.8,3.4,309.2,0.17,1.8,7.8,"10:59:28",1
"20/01/01","11:10",0.0,6.7,71.2,1022.0,251.6,1.5,2.8,232.0,0.17,1.9,7.9,"11:06:56",1
"20/01/01","11:20",0.0,7.3,70.5,1022.0,295.8,1.7,3.6,333.4,0.22,2.3,8.2,"11:11:52",1
"20/01/01","11:30",0.0,7.4,70.0,1022.0,232.1,1.2,2.6,246.7,0.17,2.3,8.2,"11:28:00",1
"20/01/01","11:40",0.0,7.3,69.8,1021.8,251.6,1.6,2.6,261.0,0.15,2.2,7.9,"11:34:48",1
"20/01/01","11:50",0.0,8.0,69.4,1021.5,274.1,2.2,4.7,307.2,0.29,2.8,8.3,"11:49:52",1
"20/01/01","12:00",0.0,8.1,67.8,1021.3,307.6,2.7,6.5,339.7,0.26,2.6,8.5,"11:58:08",1
"20/01/01","12:10",0.0,8.1,66.8,1020.8,309.5,3.2,5.9,340.4,0.21,2.3,8.5,"12:01:36",1
"20/01/01","12:20",0.0,8.4,66.1,1020.6,271.2,2.5,5.1,263.1,0.26,2.5,8.7,"12:19:12",1
"20/01/01","12:30",0.0,8.4,64.9,1020.4,256.9,2.3,5.1,240.5,0.18,2.2,8.7,"12:23:52",1
"20/01/01","12:40",0.0,8.8,63.7,1020.4,270.4,2.3,4.0,324.1,0.24,2.3,8.6,"12:30:48",1
"20/01/01","12:50",0.0,9.1,62.7,1020.6,275.6,2.0,3.3,304.1,0.20,2.4,9.0,"12:49:52",1
"20/01/01","13:00",0.0,9.1,62.3,1020.6,291.7,2.8,5.0,237.5,0.19,2.3,8.9,"12:57:28",1
"20/01/01","13:10",0.0,8.8,61.6,1020.4,292.0,3.0,5.0,329.7,0.15,1.9,9.2,"13:05:44",1
"20/01/01","13:20",0.0,8.6,62.1,1020.1,275.3,3.0,5.6,262.9,0.10,1.8,9.1,"13:16:00",1
"20/01/01","13:30",0.0,8.5,62.7,1020.6,291.6,3.1,5.5,287.7,0.08,1.8,9.0,"13:28:48",1
"20/01/01","13:40",0.0,8.3,63.2,1020.4,302.4,3.7,7.8,333.4,0.08,1.8,9.2,"13:35:12",1
"20/01/01","13:50",0.0,8.7,64.2,1020.1,317.2,3.0,5.9,317.2,0.22,2.4,9.4,"13:42:40",1
"20/01/01","14:00",0.0,9.9,61.6,1019.7,263.6,1.5,3.4,314.8,0.39,2.9,9.4,"13:50:48",1
"20/01/01","14:10",0.0,10.1,59.8,1020.1,258.3,1.8,3.6,276.8,0.29,2.7,9.4,"14:09:52",1
"20/01/01","14:20",0.0,9.6,59.2,1019.9,271.0,2.2,4.5,237.0,0.19,2.1,9.7,"14:14:40",1
"20/01/01","14:30",0.0,9.6,58.7,1020.1,286.2,2.5,5.8,338.4,0.19,2.0,9.6,"14:28:24",1
"20/01/01","14:40",0.0,9.4,58.8,1019.9,286.6,2.7,4.8,263.9,0.11,1.8,9.7,"14:39:12",1
"20/01/01","14:50",0.0,9.3,58.9,1019.7,290.2,3.0,5.5,322.9,0.11,1.7,9.8,"14:48:56",1
"20/01/01","15:00",0.0,9.2,59.1,1020.1,306.7,3.2,6.2,329.2,0.08,1.7,9.6,"14:50:48",1
"20/01/01","15:10",0.0,9.1,58.9,1019.9,325.3,3.9,6.6,336.1,0.11,1.5,9.6,"15:02:16",1
"20/01/01","15:20",0.0,8.9,58.7,1020.1,314.1,3.5,8.5,335.7,0.07,1.3,9.5,"15:13:52",1
"20/01/01","15:30",0.0,9.2,59.0,1020.4,302.8,2.7,4.7,320.7,0.13,1.7,9.5,"15:22:24",1
"20/01/01","15:40",0.0,9.4,57.5,1020.6,311.7,1.6,3.7,304.9,0.07,1.5,9.7,"15:36:42",1
"20/01/01","15:50",0.0,9.1,57.3,1020.4,322.1,2.8,5.6,318.6,0.04,1.2,9.7,"15:46:48",1
"20/01/01","16:00",0.0,9.1,57.7,1020.4,297.8,1.6,3.4,312.2,0.04,1.2,9.8,"15:51:28",1
"20/01/01","16:10",0.0,8.9,56.9,1020.4,300.1,2.7,5.2,323.5,0.05,0.9,9.7,"16:06:08",1
"20/01/01","16:20",0.0,8.8,57.6,1020.4,280.6,2.0,3.6,239.7,0.04,0.9,9.7,"16:19:44",1
"20/01/01","16:30",0.0,8.9,57.7,1020.4,287.4,2.5,3.5,316.3,0.06,1.1,9.6,"16:20:08",1
"20/01/01","16:40",0.0,8.9,56.8,1020.6,272.9,2.7,5.1,312.8,0.04,0.8,9.6,"16:39:44",1
"20/01/01","16:50",0.0,8.7,57.6,1020.4,279.4,2.6,4.3,305.7,0.03,0.8,9.5,"16:43:20",1
"20/01/01","17:00",0.0,8.5,58.5,1020.1,274.2,2.6,4.0,289.4,0.02,0.9,9.4,"16:55:28",1
"20/01/01","17:10",0.0,8.5,59.4,1020.4,267.8,2.3,3.6,240.8,0.00,1.1,9.5,"17:02:00",1
"20/01/01","17:20",0.0,8.2,60.5,1020.6,276.7,2.2,4.2,300.8,0.00,1.1,9.6,"17:14:16",1
"20/01/01","17:30",0.0,8.1,60.9,1020.8,276.1,2.2,4.4,273.5,0.00,1.1,9.4,"17:20:40",1
"20/01/01","17:40",0.0,7.9,61.6,1020.8,280.8,2.3,3.7,243.7,0.00,1.0,9.3,"17:37:12",1
"20/01/01","17:50",0.0,7.6,62.2,1020.8,286.1,1.8,2.8,270.7,0.00,0.9,9.2,"17:42:48",1
"20/01/01","18:00",0.0,7.4,63.2,1020.8,298.7,2.0,2.6,313.8,0.00,0.9,9.2,"17:55:36",1
"20/01/01","18:10",0.0,7.0,64.4,1020.8,295.8,1.7,2.4,308.9,0.00,0.8,9.2,"18:08:08",1
"20/01/01","18:20",0.0,6.5,66.3,1020.8,303.3,1.6,2.1,306.4,0.00,0.7,9.3,"18:13:20",1
"20/01/01","18:30",0.0,6.3,69.2,1020.8,317.6,2.0,2.8,314.2,0.00,1.1,9.0,"18:29:36",1
"20/01/01","18:40",0.0,5.9,71.5,1020.8,295.3,1.8,2.5,317.1,0.00,1.2,9.0,"18:30:24",1
"20/01/01","18:50",0.0,5.5,72.9,1020.8,283.4,1.6,2.0,293.9,0.00,1.1,8.8,"18:40:56",1
"20/01/01","19:00",0.0,5.5,74.1,1020.6,282.9,1.7,2.6,295.9,0.00,1.3,8.9,"18:56:00",1
"20/01/01","19:10",0.0,5.4,75.1,1021.3,307.5,2.0,2.7,315.7,0.00,1.4,8.8,"19:01:52",1
"20/01/01","19:20",0.0,5.2,75.9,1020.8,305.8,1.5,2.0,322.6,0.00,1.3,8.7,"19:10:24",1
"20/01/01","19:30",0.0,5.0,76.6,1020.8,302.1,1.3,2.4,313.1,0.00,1.3,8.9,"19:23:36",1
"20/01/01","19:40",0.0,4.9,77.4,1020.6,313.5,1.6,2.1,310.6,0.00,1.3,8.8,"19:38:00",1
"20/01/01","19:50",0.0,4.8,78.2,1021.1,299.1,1.7,2.6,315.6,0.00,1.4,9.0,"19:48:08",1
"20/01/01","20:00",0.0,4.5,78.8,1021.1,290.5,1.3,2.0,311.1,0.00,1.2,8.6,"19:50:08",1
"20/01/01","20:10",0.0,4.5,79.7,1020.6,312.7,1.8,2.6,325.2,0.00,1.3,8.7,"20:03:56",1
"20/01/01","20:20",0.0,4.5,80.7,1020.6,318.4,1.8,2.5,319.8,0.00,1.5,8.4,"20:17:36",1
"20/01/01","20:30",0.0,4.5,81.7,1020.6,309.2,1.8,2.5,323.7,0.00,1.7,8.6,"20:27:36",1
"20/01/01","20:40",0.0,4.6,82.6,1020.6,311.1,1.6,2.4,326.8,0.00,1.9,8.4,"20:36:44",1
"20/01/01","20:50",0.0,4.4,83.2,1020.6,302.6,1.3,2.1,314.2,0.00,1.8,8.4,"20:49:44",1
"20/01/01","21:00",0.0,4.1,83.7,1021.1,314.1,1.6,2.5,323.2,0.00,1.6,8.4,"20:50:16",1
"20/01/01","21:10",0.0,3.7,84.2,1020.8,288.4,1.3,1.6,294.9,0.00,1.3,8.1,"21:07:08",1
"20/01/01","21:20",0.0,3.5,84.8,1020.8,281.1,1.5,2.0,270.9,0.00,1.2,8.3,"21:12:48",1
"20/01/01","21:30",0.0,3.4,85.3,1020.8,323.8,1.7,2.6,316.3,0.00,1.2,8.2,"21:26:40",1
"20/01/01","21:40",0.0,3.3,85.7,1020.8,318.5,1.6,2.2,316.3,0.00,1.2,8.2,"21:38:24",1
"20/01/01","21:50",0.0,3.2,86.2,1020.4,307.9,2.0,3.2,317.1,0.00,1.2,7.9,"21:44:48",1
"20/01/01","22:00",0.0,3.2,86.6,1020.6,297.7,1.7,4.0,322.7,0.00,1.2,7.8,"21:52:16",1
"20/01/01","22:10",0.0,3.1,86.9,1020.6,313.0,2.0,2.7,322.5,0.00,1.2,8.0,"22:02:00",1
"20/01/01","22:20",0.0,3.0,87.3,1020.8,286.8,1.7,2.8,315.8,0.00,1.1,7.8,"22:10:32",1
"20/01/01","22:30",0.0,3.0,87.6,1020.8,305.8,2.2,3.7,324.8,0.00,1.2,7.7,"22:29:20",1
"20/01/01","22:40",0.0,3.0,87.9,1020.8,322.9,2.3,3.6,321.4,0.00,1.2,8.1,"22:30:08",1
"20/01/01","22:50",0.0,3.1,88.1,1020.4,301.2,1.8,3.4,332.1,0.00,1.4,7.8,"22:40:24",1
"20/01/01","23:00",0.0,3.1,88.2,1020.4,292.1,1.5,2.1,314.4,0.00,1.4,7.6,"22:58:16",1
"20/01/01","23:10",0.0,3.2,88.5,1020.4,331.8,1.2,1.9,341.1,0.00,1.5,7.8,"23:07:24",1
"20/01/01","23:20",0.0,3.0,88.5,1020.4,303.9,1.1,2.0,321.2,0.00,1.3,7.9,"23:17:54",1
"20/01/01","23:30",0.0,2.7,88.8,1020.1,311.9,1.8,2.4,310.6,0.00,1.1,7.6,"23:26:40",1
"20/01/01","23:40",0.0,2.7,89.0,1020.4,322.9,1.1,1.8,318.6,0.00,1.1,7.5,"23:31:52",1
"20/01/01","23:50",0.0,2.3,89.1,1019.9,308.6,2.0,3.2,323.1,0.00,0.7,7.4,"23:43:04",1
"20/01/01","24:00",0.0,2.0,89.5,1019.7,278.8,1.6,1.8,306.0,0.00,0.5,7.6,"23:50:08",1
